Regional Weather Roundup
Issued by NWS Little Rock, AR

Home | Current Version | Previous Version | Text Only | Print | Product List | Glossary On
Versions: 1 2 3 4 5 6 7 8 9 10 11 12 13 14 15 16 17 18 19 20 21 22 23 24 25 26 27 28 29 30 31 32 33 34 35 36 37 38 39 40 41 42 43 44
000
ASUS44 KLZK 200105
RWRLZK

WEATHER ROUNDUP FOR ARKANSAS
NATIONAL WEATHER SERVICE LITTLE ROCK AR
800 PM CDT TUE SEP 19 2017

NOTE: "FAIR" INDICATES FEW OR NO CLOUDS BELOW 12,000 FEET WITH NO
SIGNIFICANT WEATHER AND/OR OBSTRUCTIONS TO VISIBILITY.

ARZ001-003-010-029-200200-
NORTHWEST ARKANSAS

CITY           SKY/WX    TMP DP  RH WIND       PRES   REMARKS
FAYETTEVILLE   CLEAR     75  71  87 CALM      29.84R
FORT SMITH     CLEAR     85  70  60 S6        29.80R HX  89
HARRISON       CLEAR     80  67  64 SE8       29.87R
BENTONVILLE    CLEAR     80  69  69 S6        29.85S
ROGERS         PTCLDY    78  70  76 SE7       29.85R
SILOAM SPGS    CLEAR     79  68  69 S8          N/A
HIGHFILL       PTCLDY    79  69  71 S7        29.84R
SPRINGDALE     CLEAR     81  68  65 SE5       29.86R
$$

ARZ004-005-016-200200-
NORTH CENTRAL ARKANSAS

CITY           SKY/WX    TMP DP  RH WIND       PRES   REMARKS
BATESVILLE     CLEAR    N/A N/A N/A SE3       29.86S
FLIPPIN        CLEAR     81  67  62 SE3       29.85R HAZE
MTN HOME       CLEAR     80  67  64 S3        29.85R
$$

ARZ040-041-200200-
WEST CENTRAL ARKANSAS

CITY           SKY/WX    TMP DP  RH WIND       PRES   REMARKS
MENA           CLEAR     82  77  83 SE3       29.88R HX  91
MOUNT IDA      CLEAR     81  69  67 CALM      29.85R
$$

ARZ009-017-025-026-028-200200-
NORTHEAST ARKANSAS

CITY           SKY/WX    TMP DP  RH WIND       PRES   REMARKS
JONESBORO      CLEAR     77  72  84 CALM      29.87R
NEWPORT        CLEAR     76  71  85 SE8       29.86S
BLYTHEVILLE    PTCLDY    81  74  79 S6        29.89R HX  86
$$

ARZ022-023-033-042-044-200200-
CENTRAL ARKANSAS

CITY           SKY/WX    TMP DP  RH WIND       PRES   REMARKS
LITTLE ROCK    PTCLDY    80  74  81 S6        29.86R HX  85
N LITTLE ROCK    N/A     84  73  70 S6        29.86R HX  90
JACKSONVILLE   CLEAR     84  73  69 S6        29.85R HX  90
CONWAY           N/A     82  72  69 S7        29.83R HAZE    HX  87
SEARCY         CLEAR     77  74  90 CALM      29.87R
HOT SPRINGS    CLEAR     83  72  69 S3        29.87R HX  88
RUSSELLVILLE   CLEAR     80  71  74 SE3       29.82R
CLINTON        FAIR      77  73  88 CALM      29.85R
$$

ARZ036-200200-
EAST ARKANSAS

CITY           SKY/WX    TMP DP  RH WIND       PRES   REMARKS
WEST MEMPHIS   CLEAR     79  74  84 S3        29.88R
$$

ARZ050-053-066-070-073-200200-
SOUTHWEST ARKANSAS

CITY           SKY/WX    TMP DP  RH WIND       PRES   REMARKS
ARKADELPHIA    FAIR      77  74  90 CALM      29.87R
CAMDEN         PTCLDY    77  72  83 CALM      29.87R
TEXARKANA      PTCLDY    79  74  84 E3        29.85R
EL DORADO      CLEAR     79  75  87 E3        29.88S
$$

ARZ056-057-069-200200-
SOUTHEAST ARKANSAS

CITY           SKY/WX    TMP DP  RH WIND       PRES   REMARKS
PINE BLUFF     CLEAR     79  73  82 S5        29.87S
STUTTGART      CLEAR     83  73  72 S7        29.87R HX  89
MONTICELLO     PTCLDY    81  73  76 CALM      29.89R HX  86

$$






USA.gov is the U.S. government's official web portal to all federal, state and local government web resources and services.